Wind_Speed
21 19 18 17 16 15 14 16 18 20 20 19 18 16 15 14 13 11 8 6 4 4 5 6 8 8 8 8 7 7 7 7 6 7 7 7 8 8 8 8 8 9 9 8 8 7 7 7 7
23 22 21 19 18 15 14 17 19 21 21 20 18 17 15 14 13 11 10 7 5 5 6 7 8 8 8 8 8 8 8 8 8 8 8 8 9 9 9 8 8 8 7 7 6 6 6 6 6
25 25 24 22 18 15 16 19 21 22 22 20 19 16 15 14 12 10 9 7 6 7 7 8 9 9 9 9 9 9 9 9 9 9 9 10 10 10 9 9 8 7 6 6 6 6 6 6 6
26 27 26 23 19 17 19 21 23 24 23 22 20 17 15 12 12 11 10 8 9 8 9 10 10 10 10 10 10 10 10 10 10 10 11 11 10 10 9 9 8 7 6 6 6 6 6 6 6
26 28 28 24 21 20 22 24 25 26 25 24 22 19 17 14 13 12 10 10 10 10 10 10 10 10 10 10 10 10 10 10 11 11 11 11 11 11 10 9 8 7 6 6 6 6 6 6 6
27 28 28 25 23 23 25 27 28 28 28 27 24 21 18 16 16 14 11 10 11 11 11 10 11 11 10 10 10 11 11 11 11 12 12 12 12 11 10 9 8 8 7 7 6 6 6 6 6
27 28 27 25 25 26 27 30 31 31 30 29 27 24 21 18 17 15 12 11 11 12 11 10 10 10 10 10 11 11 11 11 12 12 12 12 12 11 10 9 9 8 8 7 6 6 6 6 6
26 27 26 25 26 27 30 32 33 33 32 31 29 25 22 21 18 16 14 12 11 11 11 10 10 10 10 10 10 11 11 12 12 12 12 12 12 11 11 10 9 9 8 8 7 7 6 7 7
24 24 24 25 27 28 32 34 35 35 34 33 30 27 23 21 19 18 16 14 12 12 11 10 10 10 11 11 12 11 12 12 12 13 13 13 12 12 11 11 10 10 9 9 8 8 8 8 7
22 22 23 25 27 29 31 34 36 36 36 34 32 29 26 23 22 19 17 15 14 13 11 10 11 11 11 11 12 13 13 13 13 13 13 13 13 13 12 12 11 11 11 10 10 10 9 9 9
21 22 23 24 27 28 30 33 36 37 36 34 32 30 27 24 22 19 16 15 16 14 12 11 11 11 11 12 13 13 14 14 14 14 14 14 14 14 13 13 13 13 12 12 12 12 11 11 11
22 22 23 24 26 28 30 32 35 36 36 35 34 31 27 24 22 18 17 16 16 15 14 13 14 13 12 13 13 13 14 16 15 15 15 15 15 15 15 15 15 15 14 14 13 13 13 13 13
23 23 23 24 26 28 30 32 34 35 35 35 34 31 28 25 22 19 18 17 16 16 16 16 16 15 14 14 14 14 14 15 17 16 16 17 17 17 16 16 17 16 16 15 15 15 15 14 15
24 24 24 24 25 27 30 32 33 33 35 35 33 31 29 27 24 22 20 19 17 16 16 16 16 16 16 16 15 16 16 16 18 18 18 18 19 19 18 18 18 17 17 16 16 17 16 16 16
24 23 23 24 25 27 30 31 32 32 34 34 33 32 30 28 26 24 22 20 18 18 17 16 15 17 18 18 19 18 19 19 19 20 20 20 20 21 20 20 19 19 18 18 18 18 18 18 19
23 23 22 23 25 27 29 29 30 32 33 34 33 32 31 29 27 25 23 22 21 19 18 18 17 18 18 20 21 20 21 21 21 22 22 22 22 22 22 21 21 20 20 21 21 20 20 20 21
22 22 22 22 25 26 28 29 29 30 31 32 32 32 31 30 29 27 25 23 23 22 21 21 21 21 20 21 23 22 23 23 24 24 24 24 25 24 24 23 23 22 22 22 23 22 22 22 22
22 22 21 22 24 26 27 28 28 29 30 30 31 31 31 30 29 28 26 25 24 23 23 22 22 22 23 24 24 25 26 26 26 26 27 26 26 26 26 26 25 25 24 24 23 23 23 23 23
20 20 20 21 23 25 26 26 26 26 28 28 28 29 30 30 29 29 28 26 25 24 24 24 24 24 24 25 25 25 27 29 29 28 28 28 27 28 28 27 27 26 26 26 25 25 24 24 24
18 18 19 20 22 24 25 25 24 25 26 27 28 28 29 29 28 28 28 27 26 25 25 26 25 25 25 26 26 27 28 28 28 29 27 27 28 28 28 27 27 27 27 26 27 27 27 27 27
17 17 18 20 21 23 24 23 22 22 23 25 26 27 27 27 28 28 28 27 26 26 26 26 26 26 26 26 27 28 28 29 30 30 30 29 28 26 27 27 25 25 25 25 25 26 26 28 28
15 17 18 19 21 21 22 23 22 21 22 23 23 23 25 26 27 27 27 27 27 27 26 27 27 27 27 27 27 27 28 26 26 27 28 28 27 27 27 26 26 26 25 25 26 27 27 27 28
15 16 17 18 20 21 21 22 21 20 20 21 22 23 25 25 26 26 26 27 27 27 27 27 27 27 26 25 26 25 25 24 25 26 26 26 27 27 27 26 26 26 26 26 27 27 28 29 29
15 15 16 17 18 19 19 20 20 20 20 21 21 23 24 25 25 25 25 25 26 27 27 27 27 27 26 26 25 24 22 22 23 25 26 26 27 28 28 27 27 28 29 30 30 29 30 31 32
15 15 15 16 16 17 18 19 19 20 20 22 22 23 24 25 25 25 25 25 25 26 27 26 26 26 26 27 26 24 22 22 24 25 25 25 26 27 28 28 29 30 30 30 30 31 32 33 34
14 13 14 15 15 15 16 18 18 19 20 21 21 22 23 25 26 25 25 25 25 25 26 26 26 27 27 28 27 25 24 23 24 24 24 24 25 25 26 27 28 30 31 31 32 32 32 34 35
12 12 12 14 14 15 16 17 18 19 19 20 21 22 23 24 24 25 25 26 26 25 26 27 26 26 27 27 27 26 24 23 24 24 25 25 25 25 25 26 26 27 29 30 32 32 34 35 36
10 11 12 13 13 14 14 15 16 17 17 18 19 21 22 23 22 23 25 25 25 25 25 25 25 25 25 26 26 24 24 24 24 25 26 26 25 25 26 27 28 28 29 30 32 34 35 36 37
10 10 11 12 14 15 15 14 13 14 14 16 18 19 20 21 23 24 25 26 25 25 25 25 25 24 24 24 25 25 24 25 25 26 26 26 26 27 28 29 29 30 32 33 34 36 36 37 38
9 10 11 12 12 13 14 13 12 12 13 14 14 15 17 19 20 22 23 24 24 24 25 25 24 24 25 25 25 25 25 25 25 25 26 26 26 27 28 29 30 31 32 33 34 34 35 37 38
Wind_Direction
258 258 259 259 256 255 257 255 252 252 254 256 258 260 262 264 268 263 246 227 227 232 236 240 245 249 254 256 261 260 259 261 264 267 273 279 282 287 291 294 297 302 306 309 312 315 317 320 324
256 257 258 259 259 259 257 257 256 256 257 259 260 262 263 261 262 252 236 217 208 220 229 234 239 246 250 253 257 260 261 262 264 266 269 272 274 280 285 287 290 296 302 305 307 311 314 315 317
254 256 257 258 260 260 256 257 258 259 259 260 261 262 264 260 253 247 234 219 213 217 223 233 240 245 246 250 254 257 260 261 260 263 267 268 270 276 281 283 286 290 296 301 302 305 308 307 308
253 254 257 258 258 255 254 256 258 259 260 260 260 261 265 258 256 250 240 231 216 220 225 230 237 242 245 249 250 254 256 257 258 260 263 266 269 272 275 277 281 283 287 293 295 298 300 298 298
253 253 255 256 255 253 252 254 256 258 258 259 259 260 260 256 255 249 236 225 213 217 223 228 234 238 244 248 250 251 252 255 255 256 260 264 268 270 271 271 274 276 279 284 287 290 290 288 289
254 255 255 254 252 249 249 251 253 256 257 257 258 258 258 261 258 254 238 225 217 218 223 227 232 237 243 249 250 248 250 254 254 255 256 258 262 264 264 264 265 267 271 274 278 280 280 279 281
256 256 256 253 249 246 247 248 250 254 257 258 259 260 260 263 262 258 246 237 230 220 222 227 232 236 242 247 250 250 250 251 253 253 253 253 254 255 255 256 255 260 262 264 267 270 272 271 273
258 257 256 253 247 244 244 246 248 251 255 258 261 262 263 264 265 259 250 238 227 223 222 225 235 237 239 244 250 252 250 248 248 249 248 247 247 246 247 248 249 252 255 256 259 262 263 263 265
260 258 255 251 247 243 243 244 246 249 251 254 259 262 263 262 266 264 257 244 233 232 224 227 238 244 242 244 247 250 250 248 246 244 243 241 240 240 241 243 244 246 248 250 254 254 254 256 258
262 261 256 251 246 243 243 244 245 247 250 252 256 260 260 262 266 267 261 249 244 242 239 235 239 245 247 247 246 248 248 245 242 240 238 237 236 236 237 239 239 240 242 245 249 249 250 252 256
264 263 258 253 248 244 243 244 245 246 249 251 254 257 259 262 266 265 262 256 253 251 246 239 240 248 251 248 246 246 245 243 241 239 238 237 235 235 237 237 236 236 239 243 247 248 250 253 257
268 265 261 256 252 247 243 243 244 246 247 250 253 256 257 259 261 266 263 260 257 253 249 250 250 251 249 249 248 249 248 243 240 239 238 236 234 236 238 238 237 238 239 242 244 248 252 255 257
269 267 263 258 254 249 245 242 243 245 247 249 252 253 254 256 257 258 261 259 258 251 246 245 243 240 244 245 248 251 254 248 240 238 239 238 236 238 237 237 238 239 240 242 245 248 252 256 261
272 268 266 260 254 251 247 244 243 243 245 247 249 251 253 253 254 254 256 260 259 254 247 242 240 242 245 244 245 247 249 245 241 237 238 239 238 237 236 238 240 240 241 241 244 249 253 258 263
273 270 266 261 256 252 249 246 244 243 243 244 246 248 249 249 249 250 250 257 258 256 249 244 248 249 248 246 245 246 245 244 243 240 238 239 239 237 237 238 242 241 239 240 244 249 255 260 264
273 270 264 260 257 254 251 248 244 243 242 242 242 244 245 246 246 248 251 256 259 259 256 254 254 252 252 250 248 248 247 245 246 243 239 239 239 238 238 239 242 242 242 244 248 251 257 262 266
274 271 265 260 257 255 252 249 245 242 241 240 239 240 241 243 245 249 252 254 257 258 259 260 259 256 255 253 249 247 248 247 247 243 237 238 239 238 238 240 241 243 243 246 250 253 258 263 266
275 271 264 258 254 253 251 250 246 242 240 239 237 237 239 241 244 247 250 252 255 259 261 259 262 264 263 258 256 252 251 249 249 243 239 239 240 239 239 239 240 241 245 248 250 255 259 262 265
276 271 264 256 251 251 251 251 249 243 239 238 238 238 238 240 242 245 248 251 253 256 258 260 264 268 268 265 258 257 256 252 251 246 244 242 243 241 239 239 242 244 245 247 249 256 260 263 265
276 272 264 256 252 251 249 248 247 243 239 238 239 240 240 240 241 243 247 249 251 254 257 259 263 264 266 264 262 261 259 257 250 246 244 246 247 245 244 243 246 247 248 250 253 257 260 263 266
273 269 262 257 254 252 250 248 245 242 241 240 240 240 240 241 242 244 246 247 251 255 259 262 265 265 266 266 266 262 261 262 251 244 244 247 246 246 244 244 247 248 252 256 259 262 264 267 268
270 268 263 259 256 253 251 251 246 242 241 241 241 240 240 240 242 245 247 249 252 255 257 261 264 264 265 266 270 265 261 258 246 242 246 247 244 245 246 247 248 253 257 261 264 264 266 271 272
274 269 263 258 256 256 253 252 249 246 245 243 243 242 240 241 244 247 250 251 252 254 256 259 261 265 267 268 270 270 265 256 246 246 248 249 250 250 249 250 252 255 258 262 264 265 268 272 274
276 273 265 260 256 257 255 254 252 250 249 246 244 243 242 245 248 249 253 255 254 255 256 259 261 265 267 269 271 270 266 260 252 249 250 253 252 251 251 252 255 259 261 263 264 267 271 273 275
278 276 268 262 254 253 256 258 258 256 255 256 253 250 249 251 253 252 253 256 257 256 257 260 262 265 267 270 271 269 264 260 256 254 254 253 252 253 254 257 260 261 262 265 267 270 272 274 276
277 273 268 269 261 258 255 261 264 263 262 263 262 258 255 253 255 256 257 258 257 257 258 261 263 264 266 268 267 267 267 264 263 262 264 262 259 260 260 261 264 265 265 268 271 273 275 276 278
273 269 264 265 269 268 265 265 268 269 268 268 265 262 258 257 255 256 258 258 258 259 259 260 262 266 268 268 266 268 267 267 267 267 267 266 265 263 264 265 270 270 270 272 274 274 276 277 278
271 267 265 267 271 273 273 272 271 270 268 267 267 262 262 261 259 258 258 261 260 260 260 261 263 266 267 267 266 268 269 268 268 268 266 264 263 264 265 266 269 272 273 273 274 275 277 278 279
274 269 265 268 273 276 280 282 281 278 276 277 275 267 262 261 260 260 261 261 260 260 260 262 266 268 266 266 267 266 266 266 268 268 266 264 264 266 266 267 270 272 272 274 276 277 278 279 280
277 272 271 272 278 281 287 285 284 284 284 283 281 275 271 266 265 264 263 259 259 259 260 261 263 266 266 265 266 265 264 265 266 267 267 267 269 270 272 273 273 274 275 276 278 280 281 281 281
Height
5867 5868 5870 5871 5873 5874 5874 5874 5873 5873 5874 5874 5875 5876 5877 5878 5879 5881 5880 5879 5879 5880 5881 5882 5883 5884 5885 5885 5886 5887 5888 5889 5890 5891 5893 5894 5895 5895 5896 5896 5896 5897 5897 5897 5897 5896 5896 5896 5896
5864 5865 5867 5868 5869 5871 5872 5871 5871 5870 5871 5872 5873 5874 5875 5875 5876 5876 5876 5876 5877 5878 5879 5880 5881 5882 5883 5883 5884 5885 5886 5887 5888 5889 5891 5892 5893 5894 5894 5894 5895 5895 5895 5895 5895 5895 5895 5895 5895
5860 5861 5863 5865 5867 5869 5869 5868 5868 5867 5868 5869 5870 5871 5872 5873 5873 5873 5874 5874 5875 5876 5877 5878 5879 5879 5880 5881 5882 5883 5884 5885 5886 5887 5888 5890 5890 5891 5892 5892 5893 5893 5894 5894 5894 5894 5894 5894 5894
5857 5858 5859 5862 5864 5866 5865 5865 5864 5864 5865 5866 5868 5869 5870 5871 5871 5871 5872 5872 5873 5874 5874 5875 5876 5877 5878 5879 5880 5881 5882 5883 5884 5885 5886 5887 5888 5889 5890 5890 5891 5891 5892 5892 5893 5893 5893 5893 5893
5852 5853 5855 5857 5860 5861 5861 5861 5860 5860 5862 5863 5865 5866 5867 5868 5868 5869 5869 5870 5870 5871 5872 5873 5874 5875 5876 5877 5877 5878 5879 5880 5881 5882 5884 5885 5886 5887 5887 5888 5888 5889 5890 5890 5891 5891 5892 5892 5892
5848 5849 5851 5853 5856 5857 5857 5856 5856 5857 5858 5859 5861 5863 5865 5866 5866 5866 5866 5866 5868 5869 5870 5870 5871 5872 5873 5874 5875 5876 5877 5878 5879 5880 5881 5882 5884 5885 5885 5886 5886 5887 5888 5888 5889 5890 5890 5891 5891
5844 5845 5846 5849 5851 5852 5852 5851 5851 5852 5853 5856 5858 5860 5862 5863 5863 5864 5864 5864 5865 5865 5866 5868 5869 5870 5871 5872 5873 5874 5874 5875 5876 5878 5879 5880 5881 5882 5883 5884 5884 5885 5886 5886 5887 5888 5889 5889 5889
5838 5840 5841 5843 5845 5846 5846 5845 5846 5847 5849 5851 5854 5857 5859 5860 5860 5861 5862 5862 5863 5863 5864 5865 5866 5867 5868 5870 5871 5871 5872 5873 5874 5875 5876 5878 5879 5880 5881 5882 5882 5883 5884 5884 5885 5886 5887 5887 5888
5833 5836 5836 5837 5839 5840 5839 5840 5841 5842 5845 5847 5849 5853 5856 5856 5858 5859 5860 5860 5860 5860 5860 5861 5863 5865 5866 5867 5868 5869 5870 5871 5871 5873 5874 5875 5876 5877 5878 5879 5880 5881 5881 5882 5883 5884 5884 5885 5885
5829 5830 5831 5831 5832 5833 5834 5835 5836 5838 5840 5842 5845 5848 5851 5853 5854 5856 5857 5858 5858 5858 5858 5858 5860 5862 5863 5864 5865 5866 5867 5868 5869 5870 5871 5872 5874 5875 5876 5877 5877 5878 5879 5880 5880 5881 5882 5882 5883
5824 5825 5825 5825 5826 5827 5829 5830 5831 5833 5836 5838 5841 5844 5847 5849 5851 5852 5853 5855 5856 5855 5856 5855 5857 5859 5860 5861 5862 5863 5864 5866 5866 5867 5869 5870 5871 5872 5873 5874 5875 5875 5876 5877 5878 5878 5879 5879 5880
5819 5819 5819 5820 5820 5822 5823 5825 5826 5828 5832 5833 5836 5839 5842 5845 5846 5848 5849 5850 5852 5852 5852 5853 5854 5855 5857 5857 5859 5860 5861 5863 5864 5865 5866 5867 5868 5869 5870 5871 5872 5872 5873 5874 5874 5875 5876 5876 5876
5813 5814 5814 5814 5815 5816 5817 5819 5820 5823 5826 5828 5831 5834 5838 5840 5842 5844 5845 5846 5848 5848 5848 5849 5850 5851 5853 5854 5855 5857 5858 5859 5860 5862 5863 5864 5864 5865 5866 5867 5868 5869 5870 5871 5871 5872 5872 5872 5873
5808 5808 5808 5809 5809 5810 5811 5813 5815 5818 5820 5823 5826 5829 5832 5835 5838 5840 5841 5843 5844 5844 5844 5845 5846 5848 5849 5850 5851 5853 5854 5855 5857 5858 5859 5860 5861 5861 5862 5864 5865 5865 5866 5867 5867 5868 5868 5869 5869
5802 5803 5803 5803 5803 5804 5806 5808 5810 5812 5814 5817 5820 5824 5827 5830 5832 5835 5837 5838 5839 5839 5840 5841 5842 5844 5845 5846 5847 5848 5850 5851 5852 5853 5854 5856 5856 5857 5858 5860 5861 5861 5862 5863 5863 5863 5864 5864 5864
5797 5797 5797 5797 5797 5798 5801 5802 5804 5805 5808 5811 5815 5818 5821 5824 5827 5829 5831 5834 5835 5835 5836 5837 5838 5839 5840 5842 5843 5844 5845 5846 5848 5848 5849 5851 5852 5853 5854 5855 5856 5857 5857 5858 5858 5859 5859 5859 5859
5792 5792 5792 5792 5792 5792 5794 5795 5798 5800 5802 5805 5809 5812 5815 5818 5821 5824 5826 5829 5830 5831 5832 5833 5834 5835 5835 5837 5838 5839 5840 5841 5842 5843 5844 5845 5847 5847 5848 5850 5851 5851 5852 5853 5853 5854 5854 5854 5854
5787 5787 5787 5787 5787 5787 5788 5790 5792 5794 5796 5799 5802 5806 5809 5813 5816 5819 5821 5823 5825 5826 5827 5828 5829 5830 5830 5831 5832 5833 5835 5835 5835 5836 5838 5840 5841 5842 5842 5844 5845 5846 5847 5847 5848 5848 5848 5848 5848
5782 5782 5783 5783 5783 5783 5784 5785 5787 5790 5792 5794 5797 5800 5803 5807 5811 5813 5815 5817 5819 5821 5822 5823 5823 5823 5824 5825 5826 5827 5828 5829 5830 5831 5832 5834 5835 5836 5836 5838 5839 5840 5841 5842 5842 5843 5843 5842 5842
5778 5778 5778 5779 5779 5779 5780 5781 5783 5785 5787 5789 5792 5794 5797 5801 5804 5807 5810 5812 5814 5815 5816 5817 5818 5818 5818 5819 5819 5820 5821 5821 5822 5824 5825 5827 5828 5829 5831 5832 5833 5834 5835 5836 5837 5837 5836 5836 5836
5775 5775 5775 5775 5775 5775 5776 5777 5779 5781 5782 5785 5787 5790 5792 5795 5798 5801 5803 5806 5808 5809 5810 5811 5812 5813 5813 5813 5813 5813 5813 5813 5815 5817 5819 5820 5822 5823 5824 5826 5827 5828 5829 5830 5830 5830 5830 5830 5830
5772 5771 5771 5770 5771 5771 5773 5773 5775 5776 5778 5780 5783 5785 5787 5790 5792 5795 5797 5800 5802 5803 5804 5805 5806 5807 5807 5806 5807 5806 5806 5806 5807 5810 5812 5813 5814 5816 5817 5819 5820 5822 5823 5824 5824 5824 5824 5823 5823
5768 5768 5767 5767 5767 5768 5768 5769 5772 5773 5775 5777 5778 5780 5783 5785 5787 5790 5792 5794 5796 5797 5798 5800 5801 5801 5801 5800 5801 5801 5800 5800 5801 5803 5806 5807 5808 5810 5811 5813 5814 5815 5816 5817 5817 5817 5817 5817 5816
5765 5765 5764 5763 5764 5764 5765 5766 5768 5769 5771 5772 5774 5775 5777 5780 5782 5784 5786 5788 5790 5791 5792 5793 5794 5795 5795 5795 5794 5794 5794 5794 5796 5798 5799 5800 5801 5803 5804 5806 5807 5808 5809 5810 5810 5810 5809 5809 5808
5762 5762 5761 5761 5761 5762 5762 5763 5765 5766 5767 5768 5769 5771 5773 5774 5776 5778 5780 5782 5783 5785 5786 5786 5787 5788 5789 5789 5789 5789 5788 5788 5790 5791 5792 5793 5794 5796 5798 5799 5800 5801 5801 5802 5802 5802 5802 5801 5800
5759 5759 5759 5759 5759 5759 5759 5760 5762 5762 5763 5763 5764 5766 5767 5769 5770 5772 5774 5775 5777 5778 5779 5780 5781 5781 5782 5783 5783 5782 5782 5783 5784 5785 5785 5786 5787 5789 5790 5791 5792 5793 5793 5793 5794 5793 5793 5792 5791
5756 5755 5756 5756 5756 5757 5757 5757 5758 5758 5759 5759 5760 5761 5762 5763 5764 5766 5767 5769 5770 5771 5772 5773 5774 5775 5775 5776 5776 5776 5776 5777 5778 5778 5779 5780 5781 5782 5783 5784 5784 5785 5785 5785 5785 5784 5784 5783 5782
5754 5754 5754 5754 5754 5754 5754 5754 5755 5754 5755 5755 5755 5756 5757 5758 5759 5760 5761 5762 5763 5764 5765 5766 5767 5767 5767 5768 5769 5768 5769 5770 5771 5771 5772 5773 5774 5775 5775 5776 5776 5777 5777 5777 5776 5775 5774 5773 5772
5752 5752 5751 5752 5752 5751 5751 5753 5751 5751 5751 5751 5751 5751 5752 5752 5753 5754 5755 5755 5756 5757 5758 5759 5760 5760 5760 5761 5761 5762 5762 5763 5764 5764 5765 5766 5766 5767 5767 5768 5768 5768 5768 5767 5767 5766 5765 5763 5762
5750 5749 5749 5750 5749 5749 5748 5751 5748 5747 5747 5747 5746 5746 5746 5746 5747 5747 5748 5749 5750 5751 5752 5752 5753 5754 5754 5754 5755 5755 5756 5756 5757 5757 5757 5758 5759 5759 5759 5759 5759 5759 5759 5758 5757 5756 5755 5753 5751